Miscellaneous Local Product
Issued by NWS North Platte, NE

Home | Current Version | Previous Version | Text Only | Print | Product List | Glossary On
Versions: 1 2 3 4 5 6 7 8 9 10 11 12 13 14 15 16 17 18 19 20 21 22 23 24 25 26 27 28 29 30 31 32 33 34 35 36 37 38 39 40 41 42 43 44 45 46 47 48 49 50
000
AXUS43 KLBF 182010
MISLBF


WESTERN AND NORTH CENTRAL NEBRASKA HOURLY WEATHER ROUNDUP
NATIONAL WEATHER SERVICE NORTH PLATTE NE
200 PM CST SUN FEB 18 2018

NOTE: "FAIR" INDICATES FEW OR NO CLOUDS BELOW 12,000 FEET WITH NO
SIGNIFICANT WEATHER AND/OR OBSTRUCTIONS TO VISIBILITY.

NOTE: STATIONS NOT REPORTING VARIABLES SUCH AS SKY/WEATHER OR
PRESSURE ARE PROVIDED BY RAWS AND APRS NETWORKS AND ARE NOT UNDER
NATIONAL WEATHER SERVICE QUALITY CONTROL.

...OBSERVATIONS IN AND NEAR THE EASTERN PANHANDLE OF NEBRASKA...

CITY           SKY/WX    TMP DP  RH WIND       PRES   REMARKS
PINE RIDGE     CLOUDY    27  21  78 N20       29.62R WCI  13
GORDON         CLOUDY    30  24  81 N18G25    29.57R WCI  17
CHADRON        PTSUNNY   29  23  78 NE25G35   29.59R WCI  14
ALLIANCE       SUNNY     42  29  59 NE20      29.47F
SIDNEY         MOSUNNY   67  11  11 S8        29.43F
$$

...OBSERVATIONS IN NORTHERN NEBRASKA AND FAR SOUTHERN SOUTH DAKOTA...

CITY           SKY/WX    TMP DP  RH WIND       PRES   REMARKS
WINNER         PTSUNNY   32  25  75 NW28G33   29.61R WCI  18
VALENTINE      CLOUDY    34  26  72 NW23G32   29.58R WCI  22
AINSWORTH      PTSUNNY   40  31  69 N21G26    29.55R WCI  31
O`NEILL        CLOUDY    49  30  47 W9        29.53F
THEDFORD       CLOUDY    47  32  55 N10G17    29.54R
BROKEN BOW     MOSUNNY   51  33  50 CALM      29.48F
ORD            MOSUNNY   51  31  46 SW18      29.50F
ALBION         MOSUNNY   51  32  49 SW13      29.53S
$$

...OBSERVATIONS IN SOUTHWEST NEBRASKA AND FAR NORTHEAST COLORADO...

CITY           SKY/WX    TMP DP  RH WIND       PRES   REMARKS
WRAY           FAIR      73  10   9 SW10G16   29.42F
HOLYOKE        FAIR      73  12   9 CALM      29.43F
IMPERIAL       MOSUNNY   58  29  33 E7        29.43F
OGALLALA       MOSUNNY   52  29  40 SE5       29.44F
NORTH PLATTE   PTSUNNY   53  30  41 SW7       29.46F
MCCOOK         SUNNY     57  33  40 S13       29.46F
LEXINGTON      SUNNY     54  32  44 S16       29.48F
GOTHENBURG       N/A     53  30  41 S6          N/A
CALLAWAY         N/A     49  35  59 SW5         N/A
$$

...OBSERVATIONS IN CENTRAL LINCOLN COUNTY AREA...

CITY           SKY/WX    TMP DP  RH WIND       PRES   REMARKS
N.P. AIRPORT   PTSUNNY   53  30  41 SW7       29.46F
$$

...OBSERVATIONS ACROSS THE ROCKIES AND WESTERN HIGH PLAINS...

CITY           SKY/WX    TMP DP  RH WIND       PRES   REMARKS
RAPID CITY     SNOW      16  12  84 N38G52    29.63R VSB 1/2 WCI  -6
SCOTTSBLUFF    MOSUNNY   57  27  31 NE17      29.44F
CHEYENNE       PTSUNNY   58  12  16 W33G43    29.47F
DENVER         MOSUNNY   68   8   9 NW12G20   29.43F
BERTHOUD PASS  FAIR      25  14  63 W60G76    29.60F WCI   3
COPPER MTN     LGT SNOW  34   9  35 SW17G37   29.72F WCI  23
MONARCH PASS   SUNNY     27  10  50 W51G61    29.85F HAZE    WCI   7
ASPEN          SUNNY     47  11  23 SW21G31   29.65F
LARAMIE        SUNNY     50  13  22 SW36G55   29.47F
CASPER         LGT SNOW  15  10  80 NE15      29.58R WCI   0
$$

...OBSERVATIONS ACROSS THE NORTHERN PLAINS...

CITY           SKY/WX    TMP DP  RH WIND       PRES   REMARKS
BISMARCK       CLOUDY    13   7  77 N15       29.83R WCI  -3
FARGO          CLOUDY    19  15  84 N24G33    29.72R FOG     WCI   2
PIERRE         CLOUDY    23  19  85 N21       29.66R WCI   8
SIOUX FALLS    CLOUDY    43  29  57 S17G25    29.53F
$$

...OBSERVATIONS ACROSS THE CENTRAL AND SOUTHERN PLAINS...

CITY           SKY/WX    TMP DP  RH WIND       PRES   REMARKS
OMAHA          PTSUNNY   56  27  32 S35G44    29.60F
GRAND ISLAND   CLOUDY    54  31  41 S26G40    29.51F
KANSAS CITY    CLOUDY    56  25  30 S25G32    29.80F
WICHITA        PTSUNNY   55  43  63 S32G40    29.73F
DODGE CITY     SUNNY     70  34  26 SW31G45   29.57F
OKLAHOMA CITY  CLOUDY    52  44  74 S18       29.87F
DALLAS         CLOUDY    56  54  93 SE15      29.92F FOG
AMARILLO       SUNNY     70  39  32 SW30G39   29.77F
$$




USA.gov is the U.S. government's official web portal to all federal, state and local government web resources and services.